[[{"header":{"parameterUnit":"m.s-1","parameterCategory":1,"la1":30.2991,"la2":30.254,"lo1":-89.0895,"lo2":-89.0444,"dy":0.0017,"dx":0.0017,"nx":28,"ny":28,"refTime":"2025-04-28T03:00:00:Z","depth":0,"parameterNumber":2,"parameterNumberName":"U-component_of_WINDS"},"data":[0,0,0,0,0,0,0,0,0,0,0,0,0,0,0,0,0,0,0,0,0,0,0,0,0,0,0,0,0,0,0,0,0,0,0,0,0,0,0,0,0,0,0,0,0,0,0,0,0,0,0,0,0,0,0,0,0,0,-3.0412,-3.0412,0,-3.0445,-3.0445,-3.0446,-3.0424,-3.0423,-3.0422,-3.0421,-3.0454,-3.0455,-3.0457,0,0,0,0,0,0,0,0,0,0,0,0,0,-3.0328,-3.033,-3.0412,-3.0412,-3.0412,-3.0445,-3.0445,-3.0446,-3.0424,-3.0423,-3.0422,-3.0421,-3.0453,-3.0455,-3.0457,0,0,0,0,0,0,0,0,0,0,0,0,0,-3.0363,-3.033,-3.0412,-3.0406,-3.0405,-3.0445,-3.0445,-3.0446,-3.0424,-3.0423,-3.0421,-3.042,-3.0452,-3.0455,-3.0458,-3.0504,0,0,-3.0466,-3.0467,0,0,0,0,0,0,0,0,-3.0361,-3.0366,-3.0406,-3.0406,-3.0406,-3.0429,-3.0428,-3.0465,-3.0425,-3.0417,-3.0421,-3.0419,-3.0446,-3.045,-3.0459,-3.0506,-3.0507,-3.0466,-3.0468,-3.0469,-3.047,0,0,0,0,0,0,0,-3.0359,-3.0365,-3.0425,-3.0407,-3.0407,-3.0401,-3.0404,-3.0435,-3.044,-3.0418,-3.0416,-3.0421,-3.0446,-3.0457,-3.046,-3.0508,-3.0466,-3.0468,-3.047,-3.0471,-3.0595,-3.0596,0,0,0,0,0,0,-3.0357,-3.0363,-3.0424,-3.0426,-3.0379,-3.0404,-3.0407,-3.0423,-3.0439,-3.044,-3.0422,-3.0419,-3.0453,-3.0457,-3.0461,-3.0516,-3.0469,-3.0471,-3.0473,-3.0593,-3.0595,-3.0597,0,0,0,0,0,0,-3.0355,-3.0363,-3.0422,-3.0394,-3.0401,-3.0407,-3.0424,-3.0424,-3.0435,-3.0443,-3.0443,-3.0432,-3.0452,-3.0457,-3.0494,-3.0517,-3.0473,-3.0475,-3.0591,-3.0594,-3.0596,-3.0627,0,0,0,0,0,0,-3.0353,-3.0362,-3.038,-3.0395,-3.0403,-3.0455,-3.0426,-3.0426,-3.044,-3.0437,-3.0452,-3.0453,-3.0451,-3.049,-3.0496,-3.052,-3.0477,-3.0589,-3.0592,-3.0595,-3.0624,-3.063,-3.0636,0,0,0,0,0,-3.035,-3.0387,-3.0381,-3.0389,-3.0425,-3.0456,-3.0461,-3.0458,-3.0442,-3.0459,-3.0465,-3.0452,-3.0514,-3.0494,-3.0501,-3.0525,-3.0587,-3.0591,-3.0595,-3.0621,-3.0629,-3.0636,0,0,0,0,0,0,-3.0374,-3.0389,-3.0382,-3.0425,-3.044,-3.0453,-3.0475,-3.0467,-3.0486,-3.0482,-3.0478,-3.0482,-3.052,-3.0527,-3.0504,-3.0572,-3.0548,-3.0553,-3.0566,-3.0573,-3.0579,-3.0576,-3.0479,0,0,0,0,0,-3.0385,-3.0409,-3.0421,-3.0457,-3.0465,-3.0469,-3.0483,-3.048,-3.0494,-3.05,-3.0508,-3.0522,-3.0545,-3.056,-3.0581,-3.0626,-3.0628,-3.0646,-3.0652,-3.0657,-3.0661,-3.0685,-3.0693,-3.0609,-3.0609,-3.0609,0,0,-3.0406,-3.0417,-3.0433,-3.0463,-3.0474,-3.0499,-3.0474,-3.0502,-3.052,-3.0504,-3.0539,-3.0546,-3.0562,-3.0603,-3.0621,-3.0609,-3.0685,-3.0662,-3.0665,-3.0667,-3.069,-3.0697,-3.0705,-3.0612,-3.0611,-3.0611,0,0,-3.0458,-3.0469,-3.0501,-3.0513,-3.053,-3.0533,-3.0541,-3.0555,-3.0559,-3.0595,-3.0583,-3.0605,-3.0644,-3.0656,-3.0667,-3.0725,-3.0714,-3.0732,-3.0762,-3.0785,-3.0792,-3.0798,-3.0818,-3.0825,-3.0737,-3.0737,-3.0737,0,-3.0482,-3.052,-3.0518,-3.0547,-3.056,-3.0548,-3.058,-3.0591,-3.0615,-3.0624,-3.0611,-3.066,-3.067,-3.0713,-3.0727,-3.0737,-3.0745,-3.0729,-3.0791,-3.0797,-3.0803,-3.0821,-3.0829,-3.0739,-3.0738,-3.0738,-3.0738,0,-3.0548,-3.0575,-3.0599,-3.0622,-3.0638,-3.0668,-3.0671,-3.0687,-3.0684,-3.0688,-3.0724,-3.0736,-3.0759,-3.077,-3.0766,-3.0813,-3.0805,-3.0792,-3.0767,-3.0812,-3.083,-3.0837,-3.0741,-3.0741,-3.074,-3.074,0,0,-3.0614,-3.0638,-3.0646,-3.0657,-3.0676,-3.0696,-3.0726,-3.0749,-3.0763,-3.078,-3.0805,-3.0839,-3.0827,-3.084,-3.0837,-3.0858,-3.0903,-3.0843,-3.0843,-3.0852,-3.0954,-3.0963,-3.0971,-3.0897,-3.0898,-3.0899,-3.0952,0,-3.0666,-3.0718,-3.0718,-3.0766,-3.079,-3.078,-3.0806,-3.0821,-3.0826,-3.0847,-3.0852,-3.0876,-3.0859,-3.0867,-3.0887,-3.0893,-3.0923,-3.0889,-3.0918,-3.0919,-3.0913,-3.098,-3.0989,-3.1039,-3.0959,-3.0961,-3.0961,0,-3.0733,-3.0753,-3.0803,-3.0819,-3.083,-3.0853,-3.0875,-3.0895,-3.0912,-3.0914,-3.0929,-3.0924,-3.0954,-3.093,-3.0971,-3.0949,-3.0961,-3.0966,-3.0968,-3.0969,-3.0942,-3.0982,-3.1055,-3.1062,-3.0972,-3.0971,-3.0971,0,-3.0775,-3.0814,-3.0849,-3.0859,-3.0879,-3.0895,-3.0904,-3.0919,-3.0934,-3.0953,-3.0962,-3.0984,-3.0996,-3.1014,-3.1015,-3.0998,-3.1056,-3.1033,-3.1058,-3.1058,-3.1069,-3.1068,-3.1143,-3.108,-3.108,-3.1079,-3.1079,0,-3.0832,-3.0863,-3.0868,-3.089,-3.0924,-3.0925,-3.0959,-3.0966,-3.098,-3.1002,-3.0996,-3.1017,-3.1018,-3.1039,-3.1041,-3.1074,-3.108,-3.1082,-3.1082,-3.1082,-3.1081,-3.1088,-3.1084,-3.1081,-3.1081,-3.1081,-3.108,0,-3.0883,-3.0888,-3.0926,-3.0942,-3.0947,-3.0972,-3.0985,-3.1006,-3.1011,-3.1039,-3.1046,-3.1054,-3.1079,-3.1083,-3.1112,-3.1113,-3.1153,-3.115,-3.1147,-3.1146,-3.1171,-3.1168,-3.1252,-3.1263,-3.1193,-3.1194,-3.1195,0,-3.0918,-3.0942,-3.0961,-3.0976,-3.0986,-3.101,-3.1025,-3.1026,-3.1042,-3.1063,-3.1081,-3.1106,-3.1126,-3.1167,-3.1175,-3.1197,-3.1194,-3.1222,-3.1197,-3.1196,-3.1193,-3.1191,-3.1193,-3.1226,-3.1227,-3.1227,-3.1228,0,-3.098,-3.0982,-3.1004,-3.1027,-3.1045,-3.1063,-3.108,-3.1093,-3.1096,-3.1114,-3.114,-3.1156,-3.1187,-3.1211,-3.1234,-3.1243,-3.1236,-3.1236,-3.1243,-3.1242,-3.1239,-3.124,-3.1159,-3.1233,-3.1233,-3.1232,-3.1232,-3.1232,-3.1024,-3.1044,-3.1061,-3.1085,-3.1099,-3.1115,-3.1135,-3.1143,-3.1165,-3.119,-3.119,-3.1219,-3.1235,-3.1265,-3.1276,-3.1298,-3.1288,-3.1299,-3.1301,-3.1303,-3.1305,-3.1237,-3.1302,-3.1302,-3.1302,-3.1302,-3.1302,0,-3.1084,-3.1095,-3.1117,-3.1142,-3.1161,-3.1154,-3.1173,-3.1189,-3.1215,-3.1231,-3.1251,-3.1281,-3.1305,-3.1316,-3.1339,-3.1355,-3.1353,-3.1361,-3.1359,-3.1361,-3.1312,-3.1303,-3.1363,-3.1363,-3.1363,-3.1363,-3.1363,-3.1363,-3.1118,-3.1152,-3.1156,-3.1196,-3.1207,-3.1235,-3.1246,-3.1261,-3.1274,-3.1308,-3.1328,-3.1335,-3.1349,-3.1374,-3.1396,-3.1398,-3.1407,-3.1416,-3.1417,-3.1371,-3.1365,-3.1359,-3.135,-3.1419,-3.1419,-3.1464,-3.1465,-3.1465]},{"header":{"parameterUnit":"m.s-1","parameterCategory":1,"la1":30.2991,"la2":30.254,"lo1":-89.0895,"lo2":-89.0444,"dy":0.0017,"dx":0.0017,"nx":28,"ny":28,"refTime":"2025-04-28T03:00:00:Z","depth":0,"parameterNumber":3,"parameterNumberName":"V-component_of_WINDS"},"data":[0,0,0,0,0,0,0,0,0,0,0,0,0,0,0,0,0,0,0,0,0,0,0,0,0,0,0,0,0,0,0,0,0,0,0,0,0,0,0,0,0,0,0,0,0,0,0,0,0,0,0,0,0,0,0,0,0,0,3.3315,3.3316,0,3.3395,3.3396,3.3397,3.3432,3.3432,3.3432,3.3432,3.3509,3.3512,3.3514,0,0,0,0,0,0,0,0,0,0,0,0,0,3.3192,3.3194,3.3315,3.3316,3.3317,3.3395,3.3396,3.3397,3.3432,3.3432,3.3432,3.3431,3.3509,3.3511,3.3514,0,0,0,0,0,0,0,0,0,0,0,0,0,3.3255,3.3194,3.3315,3.3344,3.3348,3.3395,3.3396,3.3397,3.3432,3.3432,3.3432,3.3431,3.3508,3.3511,3.3514,3.3537,0,0,3.3524,3.3526,0,0,0,0,0,0,0,0,3.3252,3.326,3.3339,3.3342,3.3346,3.3403,3.3381,3.3444,3.3432,3.34,3.3432,3.3431,3.3474,3.348,3.3495,3.3541,3.3544,3.3524,3.3526,3.3528,3.3529,0,0,0,0,0,0,0,3.3247,3.3257,3.3347,3.334,3.3344,3.3353,3.3361,3.3393,3.3437,3.3403,3.3405,3.3414,3.3476,3.3492,3.3497,3.3545,3.3524,3.3527,3.3529,3.353,3.3615,3.3615,0,0,0,0,0,0,3.3239,3.3253,3.3344,3.3349,3.3298,3.3355,3.3365,3.3385,3.3436,3.3444,3.3414,3.3416,3.3486,3.3493,3.35,3.3531,3.3528,3.3531,3.3533,3.3615,3.3615,3.3615,0,0,0,0,0,0,3.3236,3.3246,3.3341,3.3302,3.3315,3.3357,3.338,3.3387,3.3403,3.3445,3.3453,3.3423,3.3487,3.3496,3.3528,3.3534,3.3532,3.3535,3.3614,3.3615,3.3615,3.3593,0,0,0,0,0,0,3.3232,3.3245,3.3255,3.3302,3.3316,3.3368,3.338,3.3388,3.3409,3.3411,3.3455,3.3463,3.3487,3.3523,3.3531,3.3539,3.3538,3.3614,3.3615,3.3615,3.3593,3.3593,3.3592,0,0,0,0,0,3.3228,3.3244,3.3255,3.3266,3.333,3.3369,3.3377,3.3406,3.3409,3.3419,3.3447,3.3461,3.3532,3.3526,3.3536,3.3544,3.3614,3.3614,3.3615,3.3594,3.3593,3.3592,0,0,0,0,0,0,3.3195,3.3251,3.3263,3.3296,3.3328,3.3375,3.3388,3.3404,3.3434,3.3435,3.3469,3.3478,3.3508,3.353,3.3522,3.357,3.3574,3.3577,3.3555,3.3554,3.3554,3.3548,3.354,0,0,0,0,0,3.3192,3.322,3.3267,3.3291,3.3307,3.3344,3.3362,3.3382,3.3416,3.3429,3.3459,3.349,3.352,3.3538,3.3568,3.3597,3.3607,3.3607,3.3607,3.3606,3.3608,3.3626,3.3627,3.3618,3.3618,3.3618,0,0,3.3186,3.322,3.3235,3.3286,3.3312,3.334,3.3355,3.3384,3.3405,3.3433,3.3466,3.3489,3.3526,3.3558,3.3573,3.3576,3.3613,3.3607,3.3606,3.3608,3.3626,3.3627,3.3628,3.3618,3.3618,3.3618,0,0,3.3188,3.3216,3.324,3.3267,3.3308,3.3334,3.3339,3.3384,3.3401,3.3436,3.3458,3.3483,3.3532,3.3558,3.3578,3.3592,3.3607,3.36,3.3597,3.3614,3.3614,3.3615,3.3621,3.3622,3.3602,3.3602,3.3602,0,3.3174,3.3218,3.325,3.3278,3.33,3.3329,3.3353,3.3377,3.3425,3.3439,3.3443,3.3507,3.3534,3.3572,3.3576,3.359,3.3598,3.3595,3.3612,3.3613,3.3614,3.362,3.3622,3.3601,3.3601,3.3601,3.3601,0,3.32,3.323,3.3244,3.3291,3.3315,3.334,3.3376,3.3396,3.3414,3.3439,3.3473,3.3507,3.3544,3.3555,3.3572,3.3596,3.3597,3.3606,3.3611,3.3614,3.3619,3.3622,3.36,3.36,3.36,3.36,0,0,3.3183,3.3249,3.3254,3.3276,3.3324,3.3347,3.3375,3.3413,3.3429,3.3461,3.3485,3.3527,3.3537,3.3559,3.3579,3.3594,3.3604,3.3601,3.3603,3.3601,3.3633,3.3626,3.3628,3.3614,3.3615,3.3615,3.363,0,3.3192,3.3244,3.3274,3.3312,3.3341,3.3369,3.3393,3.3424,3.3449,3.3476,3.3502,3.3532,3.3541,3.3555,3.3571,3.3599,3.3611,3.3599,3.3636,3.3637,3.3626,3.3631,3.3623,3.3636,3.3632,3.3633,3.3633,0,3.321,3.3243,3.3285,3.3331,3.3344,3.3365,3.3403,3.3428,3.3465,3.3481,3.3507,3.3528,3.3558,3.3561,3.3602,3.3593,3.3611,3.3627,3.3628,3.3632,3.3635,3.3635,3.364,3.3642,3.3637,3.3636,3.3636,0,3.3194,3.3249,3.3282,3.33,3.3354,3.3368,3.3391,3.3428,3.3449,3.3482,3.3496,3.3531,3.355,3.3577,3.3607,3.3606,3.3645,3.3651,3.366,3.3659,3.3666,3.3665,3.3674,3.3677,3.3677,3.3677,3.3677,0,3.3201,3.3226,3.3276,3.3296,3.3324,3.3359,3.3386,3.3411,3.3443,3.3468,3.3495,3.3517,3.3555,3.3583,3.3606,3.3637,3.3645,3.3659,3.3665,3.3657,3.3655,3.3669,3.3669,3.3678,3.3677,3.3677,3.3677,0,3.3188,3.3223,3.326,3.3309,3.3322,3.3341,3.3382,3.3403,3.3429,3.346,3.3469,3.351,3.3544,3.3577,3.3621,3.3637,3.3668,3.3676,3.3656,3.3659,3.3666,3.3665,3.3684,3.3688,3.3688,3.3688,3.3688,0,3.319,3.321,3.3262,3.3281,3.3304,3.3335,3.3357,3.3392,3.3414,3.3458,3.3473,3.3509,3.354,3.3592,3.3625,3.366,3.3669,3.3673,3.3674,3.3665,3.3669,3.3668,3.367,3.3672,3.3672,3.3671,3.3671,0,3.3191,3.3208,3.3239,3.3277,3.3304,3.3335,3.3367,3.3381,3.3422,3.3446,3.3481,3.3505,3.3552,3.3587,3.3626,3.3649,3.3667,3.3671,3.3675,3.3667,3.3655,3.3662,3.3654,3.367,3.367,3.367,3.367,3.367,3.3186,3.3206,3.3245,3.328,3.3308,3.3338,3.336,3.339,3.342,3.3462,3.348,3.3516,3.3553,3.3608,3.363,3.3659,3.3663,3.3669,3.367,3.3671,3.3669,3.365,3.3666,3.3666,3.3666,3.3666,3.3666,0,3.3188,3.3216,3.3248,3.3293,3.332,3.3336,3.3373,3.3394,3.3426,3.3459,3.349,3.3531,3.3566,3.3602,3.3639,3.3655,3.3664,3.3663,3.3662,3.3667,3.3663,3.3656,3.3655,3.3655,3.3655,3.3655,3.3655,3.3655,3.3193,3.3227,3.3248,3.3296,3.3324,3.336,3.338,3.3407,3.3435,3.348,3.351,3.3533,3.3568,3.3608,3.3641,3.3651,3.3663,3.366,3.3672,3.3667,3.3668,3.3668,3.3662,3.3662,3.3662,3.3674,3.3674,3.3674]}]]